Weather Roundup
Issued by NWS

Home | Current Version | Previous Version | Graphics & Text | Print | Product List | Glossary Off
Versions: 1 2 3 4 5 6 7 8 9 10 11 12 13 14 15 16 17 18 19 20 21 22 23 24 25 26 27 28 29 30 31 32 33 34 35 36 37 38 39 40 41 42 43 44 45 46 47 48 49 50

494
NZUS93 KARX 272010
HRRWXR

CURRENT HOURLY OBSERVATIONS ACROSS
MUCH OF THE UPPER MISSISSIPPI VALLEY
NATIONAL WEATHER SERVICE LA CROSSE WI
300 PM CDT THU JUL 27 2017


...SOUTHEAST MINNESOTA...


CITY           SKY/WX    TMP DP  RH WIND       PRES   REMARKS
ROCHESTER      PTSUNNY   78  64  61 N10       30.06F
ROCHESTER/MAYO MOCLDY    81  59  47 CALM      30.06S
WINONA         MOSUNNY   81  59  47 N6        30.03S
AUSTIN         MOSUNNY   81  61  50 N6        30.06S
ALBERT LEA     MOSUNNY   81  66  61 N8        30.06S
DODGE CENTER   SUNNY     81  63  54 N9        30.07S
PRESTON        MOSUNNY   79  61  53 NE6       30.06S
OWATONNA       PTSUNNY   79  63  57 N9        30.07S
FARIBAULT      MOSUNNY   81  63  54 NE7       30.07S
$$

...ELSEWHERE IN MINNESOTA...


CITY           SKY/WX    TMP DP  RH WIND       PRES   REMARKS
MINNEAPOLIS    MOSUNNY   84  57  39 N9        30.06F
INTNL FALLS    MOSUNNY   80  53  39 N3        30.08F
DULUTH         CLOUDY    73  62  68 SE7       30.11S
RED WING       MOSUNNY   84  55  37 N7        30.04S
REDWOOD FALLS  SUNNY     83  60  45 VRB7      30.08F
MANKATO        MOSUNNY   81  62  52 N9        30.08S
WORTHINGTON    MOSUNNY   78  60  53 N9        30.11F
FAIRMONT       MOSUNNY   81  65  58 N10G17    30.07F
$$

...SOUTHWEST WISCONSIN...


CITY           SKY/WX    TMP DP  RH WIND       PRES   REMARKS
LA CROSSE      PTSUNNY   86  64  47 W9        30.01F
PRAIRIE DU CHI SUNNY     82  58  44 N9        30.00S
BOSCOBEL       MOSUNNY   83  60  45 VRB6      30.01S
LONE ROCK      MOSUNNY   83  62  49 N8        30.00S
PLATTEVILLE    MOSUNNY   81  65  58 N12       30.01S
FORT MC COY    PTSUNNY   81  60  48 N7        30.03S
CAMP DOUGLAS   PTSUNNY   82  61  47 NE7       30.02S
MAUSTON-NEW LI MOCLDY    82  64  53 N3        30.01S
VIROQUA        FAIR      81  62  53 N6        30.04S
WIS DELLS      SUNNY     82  58  43 N5        30.02S
$$

...ELSEWHERE IN WISCONSIN...


CITY           SKY/WX    TMP DP  RH WIND       PRES   REMARKS
MILWAUKEE      MOSUNNY   77  59  53 N16       29.99S
MADISON        PTSUNNY   82  62  50 N13       30.00S
GREEN BAY      SUNNY     79  58  48 NE14      30.03S
EAU CLAIRE     SUNNY     84  57  39 NE9       30.04F
BLACK RVR FLS  FAIR      84  58  40 N6        30.02S
MEDFORD        CLOUDY    78  59  53 N6        30.07R
WAUSAU         PTSUNNY   80  58  46 S6        30.03F
WIS RAPIDS     MOSUNNY   83  61  47 VRB6      30.04F
MARSHFIELD     PTSUNNY   79  58  48 E5        30.04F
RICE LAKE      PTSUNNY   82  56  40 N7        30.09S
$$

...NORTHEAST IOWA...


CITY           SKY/WX    TMP DP  RH WIND       PRES   REMARKS
WATERLOO       SUNNY     83  61  47 N13       30.00F
DUBUQUE        MOSUNNY   82  65  56 N14       30.00S
DECORAH        MOSUNNY   81  63  54 NE8       30.03S
MASON CITY     MOSUNNY   82  63  52 NE8       30.06F
CHARLES CITY   MOSUNNY   81  63  54 VRB6G15   30.04F
OELWEIN        SUNNY     81  64  57 NE10G18   30.02F
$$

...ELSEWHERE IN IOWA...


CITY           SKY/WX    TMP DP  RH WIND       PRES   REMARKS
DES MOINES     MOSUNNY   86  65  49 N14       29.99S
IOWA CITY      MOSUNNY   86  67  52 NE10      29.98S
FORT DODGE     PTSUNNY   81  63  54 NE8       30.05S
MARSHALLTOWN   MOSUNNY   84  63  49 NE8       30.00F
CEDAR RAPIDS   CLOUDY    81  66  61 NE10      29.97F
$$

...NORTHERN ILLINOIS...


CITY           SKY/WX    TMP DP  RH WIND       PRES   REMARKS
CHICAGO-OHARE  PTSUNNY   79  66  64 NE15      29.94S
CHICAGO-MIDWAY MOSUNNY   80  69  69 N12G20    29.93S
MOLINE         PTSUNNY   84  71  65 N6        29.94S
ROCKFORD       MOSUNNY   85  63  47 NE12      29.97S
PEORIA         PTSUNNY   83  74  74 N7        29.91F
$$

NOTE: "FAIR" INDICATES FEW OR NO CLOUDS BELOW 12,000 FEET WITH NO
SIGNIFICANT WEATHER AND/OR OBSTRUCTIONS TO VISIBILITY. WIND
SPEEDS ARE IN MILES-PER-HOUR.




USA.gov is the U.S. government's official web portal to all federal, state and local government web resources and services.